Regional Weather Roundup
Issued by NWS

Home | Current Version | Previous Version | Text Only | Print | Product List | Glossary On
Versions: 1 2 3 4 5 6 7 8 9 10 11 12 13 14 15 16 17 18 19 20 21 22 23 24 25 26 27 28 29 30 31 32 33 34 35 36 37 38 39 40 41 42 43 44 45 46 47 48 49 50
000
ASUS43 KBIS 262320
RWRND

NORTH DAKOTA REGIONAL WEATHER ROUNDUP
NATIONAL WEATHER SERVICE BISMARCK ND
500 PM CST WED NOV 26 2014

NOTE: "FAIR" INDICATES FEW OR NO CLOUDS BELOW 12,000 FEET WITH NO
SIGNIFICANT WEATHER AND/OR OBSTRUCTIONS TO VISIBILITY.


NDZ001>003-009>011-017-270000-
NORTHWEST NORTH DAKOTA

CITY           SKY/WX    TMP DP  RH WIND       PRES   REMARKS
WILLISTON      CLOUDY     9   2  73 N6        30.39R WCI  -1
MINOT          PTCLDY    -6 -10  83 NW5       30.43R WCI -17
MINOT AFB      MOCLDY   -11 -15  81 NW2       30.44R
$$

NDZ018>021-031>035-040>046-270000-
SOUTHWEST NORTH DAKOTA

CITY           SKY/WX    TMP DP  RH WIND       PRES   REMARKS
BISMARCK       PTCLDY     5  -1  76 NE6       30.44R WCI  -6
DICKINSON      CLOUDY    17  11  77 NE10      30.30R WCI   5
GARRISON         N/A      0  -6  76 NE3       30.41R
HETTINGER ARPT PTCLDY    17  12  80 CALM      30.31R
$$

NDZ004>008-012>016-024-026-027-054-270000-
NORTHEAST NORTH DAKOTA

CITY           SKY/WX    TMP DP  RH WIND       PRES   REMARKS
GRAND FORKS    CLEAR     -4  -9  79 N6        30.51R WCI -16
GRND FRKS AFB  CLEAR     -4 -10  76 NE6       30.51R WCI -16
DEVILS LAKE    CLEAR     -2 -17  50 CALM      30.43S
$$

NDZ022-023-025-028>030-036>039-047>053-270000-
SOUTHEAST NORTH DAKOTA

CITY           SKY/WX    TMP DP  RH WIND       PRES   REMARKS
FARGO          CLEAR      1  -6  72 N9        30.48R WCI -14
JAMESTOWN      CLEAR     -6 -11  79 NW8       30.43R WCI -21
$$




USA.gov is the U.S. government's official web portal to all federal, state and local government web resources and services.